World > North America > United States > Mississippi > Ackerman   Town of Ackerman, MS

Ackerman, MS Hourly Weather Updates

Feedback E-mail the Weather

Quick Clicks

Ackerman, MS Weather Maps

°F °C°F °C
Ackerman Weather Map
UTC Time: 6/18/2024, 18:10
Your Time:

Ackerman, MS Regional Weather

Expires:202406181800;;243424
ASUS44 KJAN 181710
RWRMS 

MISSISSIPPI HOURLY WEATHER ROUNDUP
NATIONAL WEATHER SERVICE JACKSON MS
1200 PM CDT TUE JUN 18 2024

NOTE: "FAIR: INDICATES FEW OR NO CLOUDS BELOW 12,000 FEET WITH NO
SIGNIFICANT WEATHER AND/OR OBSTRUCTIONS TO VISIBILITY.


MSZ003>006-009-014>017-022>024-029>033-037>039-181800-
NORTHEAST MISSISSIPPI
  
CITY           SKY/WX    TMP DP  RH WIND       PRES   REMARKS
ABERDEEN       CLOUDY    82  72  69 SE7       30.09S                  
COLUMBUS AFB     N/A     83  67  57 E7        30.04S                  
CORINTH        CLOUDY    82  72  69 SE8       30.10S                  
GOLDN TRIANGLE CLOUDY    83  68  60 E9        30.08S                  
IUKA           CLOUDY    82  69  63 SE5       30.11S                  
LOUISVILLE     CLOUDY    77  70  78 VRB7G14   30.10R                  
STARKVILLE     CLOUDY    82  72  69 E7        30.06R                  
TUPELO         CLOUDY    85  69  58 SE10      30.08S                  
$$


SKY/WX - Weather  TMP - Temperature  DP - Dew Point  RH - Humidity
WIND - Wind Direction/Speed PRES - Barometric Pressure VSB - Visibility
WCI - Wind Chill Index E13G22 Wind - East Wind 13 mph/Gusts of 22 mph

Trending Headlines

Trending Entertainment Headlines

Ackerman Radar Loop

Use the map search tool if you want to place a location marker on the radar map...

Ackerman Quick Facts

National Two Day Weather Forecast


E-mail the Ackerman Weather Forecast

Voice your opinion or tell us about page issues...